Year,Month,Day,Hour,Minute,Value (Times are PST for temperature in C)
2012,04,27,08,20,8.00
2012,04,27,08,21,8.00
2012,04,27,08,22,8.00
2012,04,27,08,23,8.00
2012,04,27,08,24,8.00
2012,04,27,08,25,8.00
2012,04,27,08,26,8.00
2012,04,27,08,27,8.00
2012,04,27,08,28,8.10
2012,04,27,08,29,8.10
2012,04,27,08,30,8.10
2012,04,27,08,31,8.10
2012,04,27,08,32,8.20
2012,04,27,08,33,8.30
2012,04,27,08,34,8.30
2012,04,27,08,35,8.30
2012,04,27,08,36,8.30
2012,04,27,08,37,8.30
2012,04,27,08,38,8.40
2012,04,27,08,39,8.40
2012,04,27,08,40,8.30
2012,04,27,08,41,8.30
2012,04,27,08,42,8.30
2012,04,27,08,43,8.40
2012,04,27,08,44,8.40
2012,04,27,08,45,8.40
2012,04,27,08,46,8.50
2012,04,27,08,47,8.50
2012,04,27,08,48,8.60
2012,04,27,08,49,8.70
2012,04,27,08,50,8.70
2012,04,27,08,51,8.80
2012,04,27,08,52,8.90
2012,04,27,08,53,9.00
2012,04,27,08,54,9.10
2012,04,27,08,55,9.20
2012,04,27,08,56,9.20
2012,04,27,08,57,9.30
2012,04,27,08,58,9.40
2012,04,27,08,59,9.50
2012,04,27,09,00,9.50
2012,04,27,09,01,9.40
2012,04,27,09,02,9.50
2012,04,27,09,03,9.50
2012,04,27,09,04,9.50
2012,04,27,09,05,9.40
2012,04,27,09,06,9.40
2012,04,27,09,07,9.50
2012,04,27,09,08,9.60
2012,04,27,09,09,9.60
2012,04,27,09,10,9.50
2012,04,27,09,11,9.50
2012,04,27,09,12,9.60
2012,04,27,09,13,9.70
2012,04,27,09,14,9.70
2012,04,27,09,15,9.70
2012,04,27,09,16,9.70
2012,04,27,09,17,9.70
2012,04,27,09,18,9.60
2012,04,27,09,19,9.50
2012,04,27,09,20,9.40
2012,04,27,09,21,9.20
2012,04,27,09,22,9.10
2012,04,27,09,23,9.10
2012,04,27,09,24,9.10
2012,04,27,09,25,9.10
2012,04,27,09,26,9.10
2012,04,27,09,27,9.10
2012,04,27,09,28,9.20
2012,04,27,09,29,9.20
2012,04,27,09,30,9.10
2012,04,27,09,31,9.10
2012,04,27,09,32,9.10
2012,04,27,09,33,9.20
2012,04,27,09,34,9.20
2012,04,27,09,35,9.30
2012,04,27,09,36,9.20
2012,04,27,09,37,9.20
2012,04,27,09,38,9.10
2012,04,27,09,39,9.10
2012,04,27,09,40,9.20
2012,04,27,09,41,9.20
2012,04,27,09,42,9.20
2012,04,27,09,43,9.20
2012,04,27,09,44,9.30
2012,04,27,09,45,9.40
2012,04,27,09,46,9.40
2012,04,27,09,47,9.40
2012,04,27,09,48,9.40
2012,04,27,09,49,9.30
2012,04,27,09,50,9.30
2012,04,27,09,51,9.20
2012,04,27,09,52,9.20
2012,04,27,09,53,9.20
2012,04,27,09,54,9.20
2012,04,27,09,55,9.30
2012,04,27,09,56,9.30
2012,04,27,09,57,9.30
2012,04,27,09,58,9.30
2012,04,27,09,59,9.30
2012,04,27,10,00,9.30
2012,04,27,10,01,9.40
2012,04,27,10,02,9.40
2012,04,27,10,03,9.40
2012,04,27,10,04,9.40
2012,04,27,10,05,9.50
2012,04,27,10,06,9.50
2012,04,27,10,07,9.50
2012,04,27,10,08,9.40
2012,04,27,10,09,9.50
2012,04,27,10,10,9.60
2012,04,27,10,11,9.60
2012,04,27,10,12,9.70
2012,04,27,10,13,9.80
2012,04,27,10,14,9.90
2012,04,27,10,15,9.90
2012,04,27,10,16,10.00
2012,04,27,10,17,9.90
2012,04,27,10,18,9.90
2012,04,27,10,19,9.90
2012,04,27,10,20,9.90
2012,04,27,10,21,9.90
2012,04,27,10,22,9.90
2012,04,27,10,23,9.90
2012,04,27,10,24,9.90
2012,04,27,10,25,9.80
2012,04,27,10,26,9.80
2012,04,27,10,27,9.70
2012,04,27,10,28,9.70
2012,04,27,10,29,9.70
2012,04,27,10,30,9.70
2012,04,27,10,31,9.60
2012,04,27,10,32,9.60
2012,04,27,10,33,9.50
2012,04,27,10,34,9.40
2012,04,27,10,35,9.30
2012,04,27,10,36,9.40
2012,04,27,10,37,9.40
2012,04,27,10,38,9.50
2012,04,27,10,39,9.60
2012,04,27,10,40,9.60
2012,04,27,10,41,9.70
2012,04,27,10,42,9.70
2012,04,27,10,43,9.70
2012,04,27,10,44,9.70
2012,04,27,10,45,9.70
2012,04,27,10,46,9.80
2012,04,27,10,47,9.90
2012,04,27,10,48,9.90
2012,04,27,10,49,9.90
2012,04,27,10,50,9.90
2012,04,27,10,51,9.90
2012,04,27,10,52,9.90
2012,04,27,10,53,9.90
2012,04,27,10,54,9.90
2012,04,27,10,55,10.10
2012,04,27,10,56,10.10
2012,04,27,10,57,10.10
2012,04,27,10,58,10.30
2012,04,27,10,59,10.40
2012,04,27,11,00,10.50
2012,04,27,11,01,10.60
2012,04,27,11,02,10.60
2012,04,27,11,03,10.60
2012,04,27,11,04,10.60
2012,04,27,11,05,10.70
2012,04,27,11,06,10.70
2012,04,27,11,07,10.60
2012,04,27,11,08,10.60
2012,04,27,11,09,10.60
2012,04,27,11,10,10.70
2012,04,27,11,11,10.70
2012,04,27,11,12,10.60
2012,04,27,11,13,10.60
2012,04,27,11,14,10.60
2012,04,27,11,15,10.60
2012,04,27,11,16,10.50
2012,04,27,11,17,10.40
2012,04,27,11,18,10.40
2012,04,27,11,19,10.40
2012,04,27,11,20,10.30
2012,04,27,11,21,10.30
2012,04,27,11,22,10.40
2012,04,27,11,23,10.50
2012,04,27,11,24,10.60
2012,04,27,11,25,10.60
2012,04,27,11,26,10.50
2012,04,27,11,27,10.50
2012,04,27,11,28,10.60
2012,04,27,11,29,10.60
2012,04,27,11,30,10.60
2012,04,27,11,31,10.60
2012,04,27,11,32,10.60
2012,04,27,11,33,10.70
2012,04,27,11,34,10.80
2012,04,27,11,35,10.80
2012,04,27,11,36,10.80
2012,04,27,11,37,10.80
2012,04,27,11,38,10.70
2012,04,27,11,39,10.60
2012,04,27,11,40,10.60
2012,04,27,11,41,10.60
2012,04,27,11,42,10.60
2012,04,27,11,43,10.60
2012,04,27,11,44,10.60
2012,04,27,11,45,10.60
2012,04,27,11,46,10.60
2012,04,27,11,47,10.60
2012,04,27,11,48,10.70
2012,04,27,11,49,10.70
2012,04,27,11,50,10.80
2012,04,27,11,51,10.80
2012,04,27,11,52,10.80
2012,04,27,11,53,10.90
2012,04,27,11,54,10.80
2012,04,27,11,55,10.80
2012,04,27,11,56,10.80
2012,04,27,11,57,10.90
2012,04,27,11,58,10.80
2012,04,27,11,59,10.70
2012,04,27,12,00,10.60
2012,04,27,12,01,10.50
2012,04,27,12,02,10.60
2012,04,27,12,03,10.60
2012,04,27,12,04,10.60
2012,04,27,12,05,10.60
2012,04,27,12,06,10.50
2012,04,27,12,07,10.40
2012,04,27,12,08,10.30
2012,04,27,12,09,10.10
2012,04,27,12,10,10.10
2012,04,27,12,11,10.20
2012,04,27,12,12,10.30
2012,04,27,12,13,10.40
2012,04,27,12,14,10.60
2012,04,27,12,15,10.70
2012,04,27,12,16,10.70
2012,04,27,12,17,10.60
2012,04,27,12,18,10.60
2012,04,27,12,19,10.60
2012,04,27,12,20,10.70
2012,04,27,12,21,10.70
2012,04,27,12,22,10.80
2012,04,27,12,23,10.90
2012,04,27,12,24,10.90
2012,04,27,12,25,10.90
2012,04,27,12,26,10.80
2012,04,27,12,27,10.60
2012,04,27,12,28,10.40
2012,04,27,12,29,10.40
2012,04,27,12,30,10.40
2012,04,27,12,31,10.60
2012,04,27,12,32,10.70
2012,04,27,12,33,10.90
2012,04,27,12,34,10.90
2012,04,27,12,35,11.10
2012,04,27,12,36,11.20
2012,04,27,12,37,11.20
2012,04,27,12,38,11.20
2012,04,27,12,39,11.30
2012,04,27,12,40,11.20
2012,04,27,12,41,11.20
2012,04,27,12,42,11.20
2012,04,27,12,43,11.20
2012,04,27,12,44,11.10
2012,04,27,12,45,11.00
2012,04,27,12,46,11.00
2012,04,27,12,47,11.10
2012,04,27,12,48,11.10
2012,04,27,12,49,10.90
2012,04,27,12,50,10.90
2012,04,27,12,51,10.90
2012,04,27,12,52,10.90
2012,04,27,12,53,10.90
2012,04,27,12,54,10.80
2012,04,27,12,55,10.80
2012,04,27,12,56,10.90
2012,04,27,12,57,10.90
2012,04,27,12,58,11.00
2012,04,27,12,59,11.10
2012,04,27,13,00,11.10
2012,04,27,13,01,11.10
2012,04,27,13,02,11.20
2012,04,27,13,03,11.20
2012,04,27,13,04,11.20
2012,04,27,13,05,11.10
2012,04,27,13,06,11.10
2012,04,27,13,07,11.10
2012,04,27,13,08,11.20
2012,04,27,13,09,11.20
2012,04,27,13,10,11.20
2012,04,27,13,11,11.10
2012,04,27,13,12,11.10
2012,04,27,13,13,11.10
2012,04,27,13,14,11.10
2012,04,27,13,15,11.10
2012,04,27,13,16,11.10
2012,04,27,13,17,11.10
2012,04,27,13,18,11.20
2012,04,27,13,19,11.30
2012,04,27,13,20,11.30
2012,04,27,13,21,11.30
2012,04,27,13,22,11.20
2012,04,27,13,23,11.10
2012,04,27,13,24,11.00
2012,04,27,13,25,10.90
2012,04,27,13,26,10.90
2012,04,27,13,27,10.90
2012,04,27,13,28,11.10
2012,04,27,13,29,11.20
2012,04,27,13,30,11.30
2012,04,27,13,31,11.40
2012,04,27,13,32,11.40
2012,04,27,13,33,11.50
2012,04,27,13,34,11.60
2012,04,27,13,35,11.60
2012,04,27,13,36,11.60
2012,04,27,13,37,11.60
2012,04,27,13,38,11.70
2012,04,27,13,39,11.80
2012,04,27,13,40,11.90
2012,04,27,13,41,12.00
2012,04,27,13,42,12.00
2012,04,27,13,43,12.10
2012,04,27,13,44,12.20
2012,04,27,13,45,12.10
2012,04,27,13,46,12.00
2012,04,27,13,47,11.90
2012,04,27,13,48,11.80
2012,04,27,13,49,11.80
2012,04,27,13,50,11.80
2012,04,27,13,51,11.80
2012,04,27,13,52,11.80
2012,04,27,13,53,11.80
2012,04,27,13,54,11.70
2012,04,27,13,55,11.70
2012,04,27,13,56,11.60
2012,04,27,13,57,11.50
2012,04,27,13,58,11.40
2012,04,27,13,59,11.40
2012,04,27,14,00,11.40
2012,04,27,14,01,11.50
2012,04,27,14,02,11.50
2012,04,27,14,03,11.40
2012,04,27,14,04,11.40
2012,04,27,14,05,11.40
2012,04,27,14,06,11.50
2012,04,27,14,07,11.70
2012,04,27,14,08,11.90
2012,04,27,14,09,12.00
2012,04,27,14,10,12.10
2012,04,27,14,11,12.20
2012,04,27,14,12,12.20
2012,04,27,14,13,12.20
2012,04,27,14,14,12.10
2012,04,27,14,15,12.00
2012,04,27,14,16,11.90
2012,04,27,14,17,11.90
2012,04,27,14,18,11.90
2012,04,27,14,19,11.90
2012,04,27,14,20,11.90
2012,04,27,14,21,11.80
2012,04,27,14,22,11.80
2012,04,27,14,23,11.80
2012,04,27,14,24,11.60
2012,04,27,14,25,11.40
2012,04,27,14,26,11.40
2012,04,27,14,27,11.40
2012,04,27,14,28,11.50
2012,04,27,14,29,11.70
2012,04,27,14,30,11.80
2012,04,27,14,31,11.80
2012,04,27,14,32,11.90
2012,04,27,14,33,12.00
2012,04,27,14,34,12.10
2012,04,27,14,35,12.20
2012,04,27,14,36,12.30
2012,04,27,14,37,12.40
2012,04,27,14,38,12.40
2012,04,27,14,39,12.20
2012,04,27,14,40,12.10
2012,04,27,14,41,12.00
2012,04,27,14,42,11.90
2012,04,27,14,43,11.80
2012,04,27,14,44,11.70
2012,04,27,14,45,11.60
2012,04,27,14,46,11.60
2012,04,27,14,47,11.70
2012,04,27,14,48,11.80
2012,04,27,14,49,11.80
2012,04,27,14,50,12.00
2012,04,27,14,51,12.10
2012,04,27,14,52,12.20
2012,04,27,14,53,12.30
2012,04,27,14,54,12.30
2012,04,27,14,55,12.30
2012,04,27,14,56,12.30
2012,04,27,14,57,12.20
2012,04,27,14,58,12.20
2012,04,27,14,59,12.20
2012,04,27,15,00,12.10
2012,04,27,15,01,12.00
2012,04,27,15,02,11.80
2012,04,27,15,03,11.80
2012,04,27,15,04,11.60
2012,04,27,15,05,11.60
2012,04,27,15,06,11.50
2012,04,27,15,07,11.40
2012,04,27,15,08,11.30
2012,04,27,15,09,11.30
2012,04,27,15,10,11.40
2012,04,27,15,11,11.40
2012,04,27,15,12,11.40
2012,04,27,15,13,11.40
2012,04,27,15,14,11.40
2012,04,27,15,15,11.40
2012,04,27,15,16,11.50
2012,04,27,15,17,11.60
2012,04,27,15,18,11.60
2012,04,27,15,19,11.60
2012,04,27,15,20,11.70
2012,04,27,15,21,11.60
2012,04,27,15,22,11.60
2012,04,27,15,23,11.60
2012,04,27,15,24,11.60
2012,04,27,15,25,11.60
2012,04,27,15,26,11.60
2012,04,27,15,27,11.60
2012,04,27,15,28,11.70
2012,04,27,15,29,11.90
2012,04,27,15,30,12.00
2012,04,27,15,31,12.20
2012,04,27,15,32,12.30
2012,04,27,15,33,12.30
2012,04,27,15,34,12.30
2012,04,27,15,35,12.40
2012,04,27,15,36,12.40
2012,04,27,15,37,12.30
2012,04,27,15,38,12.30
2012,04,27,15,39,12.20
2012,04,27,15,40,12.00
2012,04,27,15,41,12.00
2012,04,27,15,42,12.00
2012,04,27,15,43,12.10
2012,04,27,15,44,12.00
2012,04,27,15,45,12.00
2012,04,27,15,46,11.90
2012,04,27,15,47,11.80
2012,04,27,15,48,11.80
2012,04,27,15,49,11.80
2012,04,27,15,50,11.80
2012,04,27,15,51,11.80
2012,04,27,15,52,11.80
2012,04,27,15,53,11.70
2012,04,27,15,54,11.70
2012,04,27,15,55,11.80
2012,04,27,15,56,11.70
2012,04,27,15,57,11.50
2012,04,27,15,58,11.40
2012,04,27,15,59,11.30
2012,04,27,16,00,11.30
2012,04,27,16,01,11.30
2012,04,27,16,02,11.20
2012,04,27,16,03,11.20
2012,04,27,16,04,11.30
2012,04,27,16,05,11.30
2012,04,27,16,06,11.30
2012,04,27,16,07,11.40
2012,04,27,16,08,11.40
2012,04,27,16,09,11.40
2012,04,27,16,10,11.40
2012,04,27,16,11,11.40
2012,04,27,16,12,11.40
2012,04,27,16,13,11.40
2012,04,27,16,14,11.40
2012,04,27,16,15,11.40
2012,04,27,16,16,11.40
2012,04,27,16,17,11.40
2012,04,27,16,18,11.50
2012,04,27,16,19,11.60
2012,04,27,16,20,11.60
2012,04,27,16,21,11.60
2012,04,27,16,22,11.70
2012,04,27,16,23,11.70
2012,04,27,16,24,11.70
2012,04,27,16,25,11.70
2012,04,27,16,26,11.80
2012,04,27,16,27,11.80
2012,04,27,16,28,11.80
2012,04,27,16,29,11.80
2012,04,27,16,30,11.80
2012,04,27,16,31,11.80
2012,04,27,16,32,11.80
2012,04,27,16,33,11.80
2012,04,27,16,34,11.80
2012,04,27,16,35,11.80
2012,04,27,16,36,11.80
2012,04,27,16,37,11.80
2012,04,27,16,38,11.80
2012,04,27,16,39,11.80
2012,04,27,16,40,11.80
2012,04,27,16,41,11.80
2012,04,27,16,42,11.80
2012,04,27,16,43,11.80
2012,04,27,16,44,11.80
2012,04,27,16,45,11.80
2012,04,27,16,46,11.80
2012,04,27,16,47,11.70
2012,04,27,16,48,11.60
2012,04,27,16,49,11.60
2012,04,27,16,50,11.60
2012,04,27,16,51,11.60
2012,04,27,16,52,11.60
2012,04,27,16,53,11.60
2012,04,27,16,54,11.60
2012,04,27,16,55,11.60
2012,04,27,16,56,11.60
2012,04,27,16,57,11.60
2012,04,27,16,58,11.60
2012,04,27,16,59,11.60
